Rome Ciampino, Italy

2:49 AM CEST on September 24, 2017 (GMT +0200)
Ciampino

Weather History for LIRA - January, 2013

Change the Weather History Date:

Monday, January 28, 2013

  Actual Average Record
Temperature  
Mean Temperature 42 °F -  
Max Temperature 48 °F 55 °F 62 °F (2008)
Min Temperature 35 °F 38 °F 24 °F (2000)
Degree Days  
Heating Degree Days 24    
Moisture  
Dew Point 40 °F    
Average Humidity 85    
Maximum Humidity 93    
Minimum Humidity 75    
Precipitation  
Precipitation 0.00 in 0.13 in - ()
Sea Level Pressure  
Sea Level Pressure 29.88 in    
Wind  
Wind Speed 7 mph ()    
Max Wind Speed 17 mph    
Max Gust Speed -    
Visibility 4.7 miles    
Events Rain    
Averages and records for this station are not official NWS values.
T = Trace of Precipitation, MM = Missing Value Source: Averaged Metar Reports

Daily Weather History Graph

Daily Weather History Graph

Search for Another Location

Airport or City:

Trip Planner

Search our weather history database for the weather conditions in past years. The results will help you decide how hot, cold, wet, or windy it might be!

Date:

Astronomy

Jan. 28, 2013 Rise Set
Actual Time 7:25 AM CET 5:20 PM CET
Civil Twilight 6:56 AM CET 5:49 PM CET
Nautical Twilight 6:22 AM CET 6:23 PM CET
Astronomical Twilight 5:49 AM CET 6:56 PM CET
Moon 6:59 PM CET (1/28) 7:40 AM CET (1/28)
Length of Visible Light 10h 53m
Length of Day
9h 54m
Full, 98% of the Moon is Illuminated
Jan 28
Full
Feb 3
Last Quarter
Feb 10
New
Feb 17
First Quarter
Feb 25
Full

Hourly Weather History & Observations

Time (CET) Temp. Windchill Dew Point Humidity Pressure Visibility Wind Dir Wind Speed Gust Speed Precip Events Conditions
12:15 AM 35.6 °F - 30.2 °F 81% 29.95 in 6.2 mi ESE 1.2 mph - N/A   Scattered Clouds
12:45 AM 35.6 °F 32.8 °F 30.2 °F 81% 29.95 in 6.2 mi East 3.5 mph - N/A   Scattered Clouds
1:15 AM 37.4 °F - 30.2 °F 75% 29.95 in 6.2 mi ESE 2.3 mph - N/A   Scattered Clouds
1:45 AM 39.2 °F 34.2 °F 32.0 °F 75% 29.95 in 6.2 mi ESE 6.9 mph - N/A   Scattered Clouds
2:15 AM 41.0 °F 39.0 °F 33.8 °F 76% 29.95 in 6.2 mi SE 3.5 mph - N/A   Scattered Clouds
2:45 AM 41.0 °F 39.0 °F 33.8 °F 76% 29.92 in 6.2 mi ESE 3.5 mph - N/A   Scattered Clouds
3:15 AM 42.8 °F - 37.4 °F 81% 29.92 in 6.2 mi Calm Calm - N/A   Scattered Clouds
3:45 AM 42.8 °F - 37.4 °F 81% 29.92 in 6.2 mi ESE 2.3 mph - N/A   Mostly Cloudy
4:15 AM 42.8 °F - 37.4 °F 81% 29.89 in 6.2 mi ESE 1.2 mph - N/A   Mostly Cloudy
4:45 AM 42.8 °F - 37.4 °F 81% 29.89 in 6.2 mi ENE 1.2 mph - N/A   Scattered Clouds
5:15 AM 42.8 °F - 37.4 °F 81% 29.89 in 6.2 mi Calm Calm - N/A   Scattered Clouds
5:45 AM 44.6 °F 40.2 °F 37.4 °F 76% 29.86 in 6.2 mi SE 8.1 mph - N/A   Scattered Clouds
6:15 AM 46.4 °F 41.1 °F 41.0 °F 81% 29.86 in 6.2 mi SE 11.5 mph - N/A   Light Drizzle
6:45 AM 46.4 °F 40.7 °F 41.0 °F 81% 29.86 in 6.2 mi SE 12.7 mph - N/A   Light Drizzle
7:15 AM 48.2 °F - 41.0 °F 76% 29.83 in 6.2 mi SE 11.5 mph - N/A   Light Drizzle
7:45 AM 46.4 °F 41.5 °F 42.8 °F 87% 29.86 in 4.3 mi SE 10.4 mph - N/A Rain Light Rain
8:15 AM 48.2 °F - 42.8 °F 82% 29.83 in 4.3 mi SSE 13.8 mph - N/A Rain Light Rain
8:45 AM 48.2 °F - 42.8 °F 82% 29.83 in 4.3 mi SE 17.3 mph - N/A Rain Light Rain
9:15 AM 48.2 °F - 42.8 °F 82% 29.83 in 3.7 mi SE 16.1 mph - N/A Rain Light Rain
9:45 AM 48.2 °F - 44.6 °F 87% 29.83 in 3.7 mi SE 11.5 mph - N/A Rain Light Rain
10:15 AM 48.2 °F - 44.6 °F 87% 29.83 in 3.7 mi ESE 9.2 mph - N/A Rain Light Rain
10:45 AM 48.2 °F - 44.6 °F 87% 29.83 in 3.7 mi ESE 10.4 mph - N/A Rain Light Rain
11:15 AM 48.2 °F - 44.6 °F 87% 29.83 in 4.3 mi SE 12.7 mph - N/A Rain Light Rain
11:45 AM 48.2 °F - 46.4 °F 93% 29.83 in 4.3 mi ESE 13.8 mph - N/A Rain Light Rain
12:15 PM 48.2 °F - 44.6 °F 87% 29.80 in 4.3 mi ESE 12.7 mph - N/A Rain Light Rain
12:45 PM 48.2 °F - 44.6 °F 87% 29.80 in 4.3 mi ESE 10.4 mph - N/A Rain Light Rain
1:15 PM 48.2 °F - 42.8 °F 82% 29.80 in 3.7 mi ESE 13.8 mph - N/A Rain Light Rain
1:45 PM 46.4 °F 40.1 °F 42.8 °F 87% 29.80 in 3.7 mi ESE 15.0 mph - N/A Rain Light Rain
2:15 PM 46.4 °F 40.4 °F 41.0 °F 81% 29.80 in 5.0 mi East 13.8 mph - N/A Rain Light Rain
2:45 PM 46.4 °F 42.4 °F 41.0 °F 81% 29.80 in 5.0 mi East 8.1 mph - N/A Rain Light Rain
3:15 PM 46.4 °F 41.1 °F 42.8 °F 87% 29.80 in 4.3 mi East 11.5 mph - N/A Rain Light Rain
3:45 PM 46.4 °F 41.1 °F 42.8 °F 87% 29.80 in 5.0 mi ENE 11.5 mph - N/A Rain Light Rain
4:15 PM 46.4 °F 42.4 °F 41.0 °F 81% 29.80 in 5.0 mi ENE 8.1 mph - N/A Rain Light Rain
4:45 PM 46.4 °F 41.9 °F 42.8 °F 87% 29.83 in 3.7 mi ENE 9.2 mph - N/A Rain Light Rain
5:15 PM 44.6 °F 40.7 °F 41.0 °F 87% 29.83 in 3.7 mi ENE 6.9 mph - N/A Rain Light Rain
5:45 PM 46.4 °F 42.4 °F 42.8 °F 87% 29.83 in 3.7 mi ENE 8.1 mph - N/A Rain Light Rain
6:15 PM 46.4 °F 41.1 °F 42.8 °F 87% 29.83 in 3.7 mi ENE 11.5 mph - N/A Rain Light Rain
6:45 PM 46.4 °F 40.7 °F 42.8 °F 87% 29.86 in 3.7 mi ENE 12.7 mph - N/A Rain Light Rain
7:15 PM 44.6 °F 40.2 °F 41.0 °F 87% 29.89 in 3.7 mi NE 8.1 mph - N/A Rain Light Rain
7:45 PM 44.6 °F 40.2 °F 41.0 °F 87% 29.89 in 3.7 mi NE 8.1 mph - N/A Rain Light Rain
8:15 PM 44.6 °F 39.2 °F 41.0 °F 87% 29.92 in 3.7 mi NE 10.4 mph - N/A Rain Light Rain
8:45 PM 42.8 °F 36.6 °F 41.0 °F 93% 29.92 in 3.7 mi NE 11.5 mph - N/A Rain Light Rain
9:15 PM 42.8 °F 36.6 °F 41.0 °F 93% 29.95 in 3.7 mi NNE 11.5 mph - N/A Rain Light Rain
9:45 PM 42.8 °F 38.0 °F 41.0 °F 93% 29.95 in 3.7 mi NNE 8.1 mph - N/A Rain Light Rain
10:15 PM 42.8 °F 38.6 °F 41.0 °F 93% 29.98 in 3.7 mi NNE 6.9 mph - N/A Rain Light Rain
10:45 PM 42.8 °F 38.0 °F 41.0 °F 93% 30.01 in 3.7 mi North 8.1 mph - N/A   Mostly Cloudy
11:15 PM 42.8 °F 39.3 °F 41.0 °F 93% 30.01 in 5.0 mi NNE 5.8 mph - N/A   Scattered Clouds
11:45 PM 42.8 °F 38.6 °F 41.0 °F 93% 30.01 in 5.0 mi North 6.9 mph - N/A   Scattered Clouds